When you browse on this site, cookies collect data to enhance your experience and personalize the content and advertising you see.
Visit our Privacy Policy to learn more. By continuing to use the site, you agree to this use of cookies and data.
  • In Schweiz
  • Länderverzeichnis
  • Für 7 Tage
  • Wassertemperatur
  • Wetterkarte
  • Widgets
  • user-avatar
    Anmelden

    Stündliche Wetter Puate

    Heute, 30 Mai, Samstag

    Zeit Temperatur Niederschläge Wind Luftdruck Luftfeuchtigkeit
    00:00 +12°C° 0 mm 4 m/S 754 mmHg 91%
    01:00 +12°C° 0 mm 4 m/S 754 mmHg 92%
    02:00 +11°C° 0 mm 4 m/S 754 mmHg 92%
    03:00 +10°C° 0 mm 3 m/S 754 mmHg 92%
    04:00 +11°C° 0 mm 4 m/S 754 mmHg 89%
    05:00 +12°C° 0 mm 4 m/S 754 mmHg 86%
    06:00 +12°C° 0 mm 4 m/S 754 mmHg 84%
    07:00 +14°C° 0 mm 5 m/S 754 mmHg 78%
    08:00 +16°C° 0 mm 5 m/S 754 mmHg 72%
    09:00 +19°C° 0 mm 5 m/S 754 mmHg 67%
    10:00 +20°C° 0 mm 6 m/S 753 mmHg 64%
    11:00 +21°C° 0 mm 6 m/S 753 mmHg 61%
    12:00 +22°C° 0 mm 6 m/S 753 mmHg 59%
    13:00 +22°C° 0 mm 6 m/S 752 mmHg 59%
    14:00 +22°C° 0 mm 6 m/S 752 mmHg 59%
    15:00 +23°C° 0 mm 6 m/S 752 mmHg 60%
    16:00 +22°C° 0 mm 6 m/S 752 mmHg 64%
    17:00 +21°C° 0 mm 5 m/S 752 mmHg 69%
    18:00 +20°C° 0 mm 5 m/S 752 mmHg 73%
    19:00 +19°C° 0 mm 4 m/S 752 mmHg 77%
    20:00 +17°C° 0 mm 4 m/S 752 mmHg 81%
    21:00 +14°C° 0 mm 4 m/S 752 mmHg 85%
    22:00 +14°C° 0 mm 4 m/S 752 mmHg 86%
    23:00 +13°C° 0 mm 4 m/S 752 mmHg 88%

    Morgen, 31 Mai, Sonntag

    Zeit Temperatur Niederschläge Wind Luftdruck Luftfeuchtigkeit
    00:00 +12°C° 0 mm 4 m/S 752 mmHg 89%
    01:00 +12°C° 0 mm 4 m/S 752 mmHg 88%
    02:00 +11°C° 0 mm 4 m/S 752 mmHg 87%
    03:00 +11°C° 0 mm 4 m/S 751 mmHg 87%
    04:00 +10°C° 0 mm 5 m/S 752 mmHg 84%
    05:00 +12°C° 0 mm 5 m/S 752 mmHg 81%
    06:00 +12°C° 0 mm 5 m/S 752 mmHg 78%
    07:00 +14°C° 0 mm 6 m/S 752 mmHg 74%
    08:00 +16°C° 0 mm 6 m/S 752 mmHg 70%
    09:00 +18°C° 0 mm 7 m/S 752 mmHg 66%
    10:00 +20°C° 0 mm 7 m/S 752 mmHg 64%
    11:00 +21°C° 0 mm 7 m/S 752 mmHg 62%
    12:00 +22°C° 0 mm 7 m/S 752 mmHg 60%
    13:00 +22°C° 0 mm 7 m/S 751 mmHg 61%
    14:00 +22°C° 0 mm 7 m/S 751 mmHg 62%
    15:00 +22°C° 0 mm 7 m/S 751 mmHg 62%
    16:00 +22°C° 0 mm 7 m/S 751 mmHg 66%
    17:00 +21°C° 0 mm 6 m/S 751 mmHg 70%
    18:00 +20°C° 0 mm 6 m/S 751 mmHg 74%
    19:00 +17°C° 0 mm 6 m/S 751 mmHg 76%
    20:00 +16°C° 0 mm 5 m/S 751 mmHg 79%
    21:00 +15°C° 0 mm 5 m/S 752 mmHg 82%
    22:00 +14°C° 0 mm 5 m/S 752 mmHg 84%
    23:00 +13°C° 0 mm 5 m/S 752 mmHg 86%

    übermorgen, 1 Juni, Montag

    Zeit Temperatur Niederschläge Wind Luftdruck Luftfeuchtigkeit
    00:00 +12°C° 0 mm 4 m/S 752 mmHg 88%
    01:00 +12°C° 0 mm 4 m/S 751 mmHg 89%
    02:00 +11°C° 0 mm 4 m/S 751 mmHg 91%
    03:00 +10°C° 0 mm 4 m/S 751 mmHg 93%
    04:00 +11°C° 0 mm 4 m/S 751 mmHg 90%
    05:00 +11°C° 0 mm 4 m/S 751 mmHg 88%
    06:00 +12°C° 0 mm 4 m/S 751 mmHg 85%
    07:00 +14°C° 0 mm 5 m/S 752 mmHg 81%
    08:00 +16°C° 0 mm 5 m/S 752 mmHg 77%
    09:00 +19°C° 0 mm 5 m/S 752 mmHg 72%
    10:00 +20°C° 0 mm 5 m/S 752 mmHg 70%
    11:00 +22°C° 0 mm 5 m/S 752 mmHg 67%
    12:00 +23°C° 0 mm 5 m/S 752 mmHg 65%
    13:00 +23°C° 0 mm 5 m/S 752 mmHg 64%
    14:00 +25°C° 0 mm 5 m/S 752 mmHg 63%
    15:00 +25°C° 0 mm 5 m/S 751 mmHg 63%
    16:00 +25°C° 0 mm 4 m/S 751 mmHg 67%
    17:00 +23°C° 0 mm 4 m/S 751 mmHg 71%
    18:00 +22°C° 0 mm 3 m/S 751 mmHg 75%
    19:00 +20°C° 0 mm 3 m/S 752 mmHg 80%
    20:00 +18°C° 0 mm 3 m/S 752 mmHg 85%
    21:00 +16°C° 0 mm 3 m/S 752 mmHg 90%
    22:00 +16°C° 0 mm 3 m/S 752 mmHg 91%
    23:00 +15°C° 0 mm 2 m/S 752 mmHg 92%

    2 Juni, Dienstag

    Zeit Temperatur Niederschläge Wind Luftdruck Luftfeuchtigkeit
    00:00 +15°C° 0 mm 2 m/S 752 mmHg 94%
    01:00 +14°C° 0 mm 2 m/S 752 mmHg 94%
    02:00 +14°C° 0 mm 2 m/S 752 mmHg 95%
    03:00 +14°C° 0 mm 2 m/S 752 mmHg 95%
    04:00 +14°C° 0 mm 2 m/S 752 mmHg 94%
    05:00 +15°C° 0 mm 1 m/S 752 mmHg 93%
    06:00 +16°C° 0 mm 1 m/S 752 mmHg 92%
    07:00 +19°C° 0 mm 1 m/S 752 mmHg 85%
    08:00 +21°C° 0 mm 1 m/S 752 mmHg 79%
    09:00 +22°C° 0 mm 1 m/S 752 mmHg 72%
    10:00 +24°C° 0 mm 1 m/S 752 mmHg 66%
    11:00 +25°C° 0 mm 1 m/S 751 mmHg 60%
    12:00 +27°C° 0 mm 1 m/S 751 mmHg 54%
    13:00 +27°C° 0 mm 1 m/S 751 mmHg 53%
    14:00 +27°C° 0 mm 2 m/S 750 mmHg 51%
    15:00 +27°C° 0 mm 2 m/S 750 mmHg 50%
    16:00 +27°C° 0 mm 2 m/S 749 mmHg 55%
    17:00 +26°C° 0 mm 2 m/S 749 mmHg 59%
    18:00 +25°C° 0 mm 2 m/S 748 mmHg 64%
    19:00 +23°C° 0 mm 2 m/S 748 mmHg 66%
    20:00 +20°C° 0 mm 2 m/S 748 mmHg 69%
    21:00 +19°C° 0 mm 1 m/S 748 mmHg 72%
    22:00 +18°C° 0 mm 1 m/S 747 mmHg 75%
    23:00 +16°C° 0 mm 1 m/S 747 mmHg 79%

    3 Juni, Mittwoch

    Zeit Temperatur Niederschläge Wind Luftdruck Luftfeuchtigkeit
    00:00 +16°C° 0 mm 1 m/S 747 mmHg 83%
    01:00 +15°C° 0 mm 1 m/S 746 mmHg 85%
    02:00 +15°C° 0 mm 1 m/S 746 mmHg 88%
    03:00 +15°C° 0 mm 1 m/S 745 mmHg 90%
    04:00 +15°C° 0 mm 1 m/S 745 mmHg 89%
    05:00 +16°C° 0 mm 1 m/S 745 mmHg 88%
    06:00 +17°C° 0 mm 2 m/S 744 mmHg 87%
    07:00 +18°C° 0 mm 2 m/S 744 mmHg 82%
    08:00 +20°C° 0 mm 2 m/S 744 mmHg 77%
    09:00 +22°C° 0 mm 3 m/S 744 mmHg 72%
    10:00 +22°C° 0.3 mm 3 m/S 743 mmHg 70%
    11:00 +22°C° 0.3 mm 4 m/S 743 mmHg 68%
    12:00 +23°C° 0.3 mm 5 m/S 742 mmHg 66%
    13:00 +23°C° 0.1 mm 5 m/S 742 mmHg 65%
    14:00 +22°C° 0.1 mm 5 m/S 742 mmHg 63%
    15:00 +22°C° 0.1 mm 6 m/S 742 mmHg 61%
    16:00 +21°C° 0 mm 5 m/S 741 mmHg 66%
    17:00 +20°C° 0 mm 5 m/S 741 mmHg 70%
    18:00 +19°C° 0 mm 5 m/S 741 mmHg 74%
    19:00 +17°C° 0 mm 4 m/S 741 mmHg 80%
    20:00 +14°C° 0 mm 4 m/S 741 mmHg 85%
    21:00 +13°C° 0 mm 4 m/S 742 mmHg 90%
    22:00 +12°C° 0 mm 4 m/S 741 mmHg 92%
    23:00 +12°C° 0 mm 4 m/S 741 mmHg 94%

    4 Juni, Donnerstag

    Zeit Temperatur Niederschläge Wind Luftdruck Luftfeuchtigkeit
    00:00 +11°C° 0 mm 4 m/S 741 mmHg 96%
    01:00 +11°C° 0 mm 4 m/S 741 mmHg 96%
    02:00 +11°C° 0 mm 4 m/S 741 mmHg 96%
    03:00 +11°C° 0 mm 4 m/S 740 mmHg 96%
    04:00 +12°C° 0 mm 4 m/S 740 mmHg 95%
    05:00 +12°C° 0 mm 5 m/S 740 mmHg 93%
    06:00 +13°C° 0 mm 5 m/S 740 mmHg 91%
    07:00 +14°C° 0.1 mm 4 m/S 740 mmHg 88%
    08:00 +15°C° 0.1 mm 4 m/S 740 mmHg 84%
    09:00 +17°C° 0.1 mm 4 m/S 740 mmHg 80%
    10:00 +17°C° 0.6 mm 5 m/S 740 mmHg 78%
    11:00 +17°C° 0.6 mm 5 m/S 740 mmHg 75%
    12:00 +19°C° 0.6 mm 6 m/S 740 mmHg 73%
    13:00 +19°C° 1.4 mm 6 m/S 739 mmHg 75%
    14:00 +19°C° 1.4 mm 6 m/S 739 mmHg 77%
    15:00 +17°C° 1.4 mm 6 m/S 739 mmHg 80%
    16:00 +16°C° 0.5 mm 5 m/S 739 mmHg 83%
    17:00 +15°C° 0.5 mm 5 m/S 739 mmHg 87%
    18:00 +13°C° 0.5 mm 5 m/S 740 mmHg 90%
    19:00 +13°C° 0 mm 4 m/S 740 mmHg 91%
    20:00 +12°C° 0 mm 4 m/S 740 mmHg 93%
    21:00 +11°C° 0 mm 3 m/S 741 mmHg 94%
    22:00 +11°C° 0 mm 3 m/S 740 mmHg 94%
    23:00 +12°C° 0 mm 2 m/S 740 mmHg 94%
    Mehr zeigen